"Time","Temp","Dewpoint","Humidity","Pressure","Direction","Speed","Gust","Precip","PrecipRate"
"00:04:58","43.3","32.3","64.9","29.93","275","0","0","0.00","0.00"
"00:09:58","42.9","32.1","65.6","29.93","275","0","2.4","0.00","0.00"
"00:14:59","42.6","32.2","66.5","29.93","275","0.7","2.4","0.00","0.00"
"00:19:58","42.4","32.2","67","29.93","275","1.3","3.6","0.00","0.00"
"00:24:59","42.2","32.2","67.5","29.93","275","0.9","2.4","0.00","0.00"
"00:29:59","41.9","32.3","68.4","29.93","160","1.6","4.8","0.00","0.00"
"00:34:57","41.7","32.4","69.3","29.93","120","1.1","2.4","0.00","0.00"
"00:39:58","42.1","32.7","69.2","29.93","120","0.9","2.4","0.00","0.00"
"00:44:59","42.4","32.7","68.3","29.94","121","0.2","2.4","0.00","0.00"
"00:49:57","42","32.6","69.1","29.94","131","1.3","4.8","0.00","0.00"
"00:54:58","41.9","33.2","70.9","29.94","140","0.4","2.4","0.00","0.00"
"00:59:59","42","32.9","70","29.94","140","0.2","2.3","0.00","0.00"
"01:04:58","42","33.3","71","29.94","140","1.1","3.6","0.00","0.00"
"01:09:57","41.7","33","70.8","29.94","140","0.4","2.4","0.00","0.00"
"01:14:59","41.4","32.9","71.4","29.94","140","0","0","0.00","0.00"
"01:19:56","41.1","32.8","72","29.94","140","0","0","0.00","0.00"
"01:24:58","41","32.9","72.7","29.94","142","0","0","0.00","0.00"
"01:29:59","41.1","33.1","73","29.94","140","0","0","0.00","0.00"
"01:34:58","40.9","32.8","72.5","29.94","55","0","0","0.00","0.00"
"01:39:59","40.5","32.6","73.3","29.94","55","0","0","0.00","0.00"
"01:44:56","40.3","32.8","74.2","29.94","267","0","0","0.00","0.00"
"01:49:59","40.2","32.9","74.9","29.94","267","0","0","0.00","0.00"
"01:54:57","40.2","32.8","74.5","29.94","267","0","0","0.00","0.00"
"01:59:58","40.1","33","75.4","29.94","273","0.9","4.8","0.00","0.00"
"02:04:57","40.4","33.3","75.8","29.94","273","1.4","3.6","0.00","0.00"
"02:09:56","40.9","33.5","74.8","29.94","274","0","0","0.00","0.00"
"02:14:57","41.3","33.9","74.7","29.94","274","0.9","3.6","0.00","0.00"
"02:19:59","41.9","34","73.2","29.94","274","2.3","3.6","0.00","0.00"
"02:24:56","42.4","34.3","72.6","29.94","274","1.6","3.6","0.00","0.00"
"02:29:56","42.7","34.3","72","29.94","272","2.3","3.6","0.00","0.00"
"02:34:59","42.6","34.2","72","29.94","257","1.7","3.6","0.00","0.00"
"02:39:56","42.6","34.2","72","29.94","257","1.1","2.4","0.00","0.00"
"02:44:56","42.4","33.8","71.5","29.94","257","0.4","1.2","0.00","0.00"
"02:49:59","41.9","33.5","72.1","29.94","257","0","0","0.00","0.00"
"02:54:56","41.5","33.5","73","29.94","257","0","0","0.00","0.00"
"02:59:56","41","33.2","73.6","29.95","257","0.1","1.2","0.00","0.00"
"03:04:57","40.3","33","74.9","29.95","257","0","0","0.00","0.00"
"03:09:56","39.8","32.6","75.3","29.95","257","0","0","0.00","0.00"
"03:14:57","39.3","32.6","76.5","29.95","257","0","0","0.00","0.00"
"03:19:59","38.9","32.4","77.2","29.95","257","0","0","0.00","0.00"
"03:24:56","38.3","31.7","77.1","29.95","257","0","0","0.00","0.00"
"03:29:56","37.6","31.5","78.4","29.95","257","0","0","0.00","0.00"
"03:34:58","37.2","31.5","79.7","29.95","257","0.3","2.4","0.00","0.00"
"03:39:58","36.8","31.4","80.7","29.95","257","1.2","2.4","0.00","0.00"
"03:44:59","36.6","31.5","81.7","29.96","257","1","2.4","0.00","0.00"
"03:49:59","36.3","31.1","81.3","29.96","257","0","0","0.00","0.00"
"03:54:58","36.1","31.1","82","29.96","257","0","0","0.00","0.00"
"03:59:57","35.9","31","82.4","29.96","257","0","0","0.00","0.00"
"04:04:56","35.7","31.1","83.4","29.95","257","0","0","0.00","0.00"
"04:09:56","35.5","31","83.6","29.95","257","0","0","0.00","0.00"
"04:14:57","35.2","30.7","83.4","29.96","257","0","0","0.00","0.00"
"04:19:58","34.9","30.7","84.2","29.96","257","0","0","0.00","0.00"
"04:24:59","34.6","30.4","84.3","29.96","257","0","0","0.00","0.00"
"04:29:57","34.4","30.3","84.6","29.96","257","0","0","0.00","0.00"
"04:34:57","34.3","30.4","85.6","29.96","257","0","0","0.00","0.00"
"04:39:58","34.1","30.4","86","29.96","257","0","0","0.00","0.00"
"04:44:58","33.9","30.1","85.5","29.97","257","0","0","0.00","0.00"
"04:49:56","33.7","30","86","29.97","257","0","0","0.00","0.00"
"04:54:56","33.5","29.9","86.3","29.97","257","0","0","0.00","0.00"
"04:59:56","33.5","30","87","29.97","257","0","0","0.00","0.00"
"05:04:58","33.5","29.9","86.8","29.97","257","0","0","0.00","0.00"
"05:09:58","33.3","29.6","86","29.97","257","0","0","0.00","0.00"
"05:14:58","33","29.5","86.6","29.97","257","0","0","0.00","0.00"
"05:19:56","32.9","29.5","87","29.97","257","0","0","0.00","0.00"
"05:24:56","32.7","29.4","87.4","29.97","257","0","0","0.00","0.00"
"05:29:57","32.6","29.4","88","29.97","257","0","0","0.00","0.00"
"05:34:59","32.5","29.3","88","29.97","257","0","0","0.00","0.00"
"05:39:59","32.4","29.2","88","29.97","257","0","0","0.00","0.00"
"05:44:56","32.2","29","88","29.97","257","0","0","0.00","0.00"
"05:49:59","32.1","29.2","88.9","29.97","257","0","0","0.00","0.00"
"05:54:56","32.2","29.3","89","29.97","257","0","0","0.00","0.00"
"05:59:56","32","29.1","89","29.98","257","0","0","0.00","0.00"
"06:04:59","31.9","29","89.1","29.98","257","0","0","0.00","0.00"
"06:09:56","31.9","29.3","90","29.98","257","0","0","0.00","0.00"
"06:14:57","32","29.4","89.9","29.98","257","0","0","0.00","0.00"
"06:19:59","31.8","28.9","89","29.98","257","0","0","0.00","0.00"
"06:24:56","31.6","28.7","89","29.98","257","0","0","0.00","0.00"
"06:29:56","31.5","28.6","89","29.98","257","0","0","0.00","0.00"
"06:34:58","31.3","28.4","89","29.98","257","0","0","0.00","0.00"
"06:39:59","31.2","28.4","89.5","29.98","257","0","0","0.00","0.00"
"06:44:56","31.2","28.6","90","29.98","257","0","0","0.00","0.00"
"06:49:58","31.2","28.7","90.3","29.98","257","0","0","0.00","0.00"
"06:54:59","31.2","28.6","90","29.98","257","0","0","0.00","0.00"
"06:59:56","31.1","28.5","90","29.98","257","0","0","0.00","0.00"
"07:04:58","31.1","28.8","90.9","29.98","257","0","0","0.00","0.00"
"07:09:57","31.2","28.9","91","29.98","257","0","0","0.00","0.00"
"07:14:58","31.5","29.3","91.5","29.98","257","0.1","2.4","0.00","0.00"
"07:19:57","31.7","29.4","91","29.97","257","0.5","2.4","0.00","0.00"
"07:24:57","31.9","29.6","91","29.97","257","0","0","0.00","0.00"
"07:29:57","32","29.7","91","29.97","257","0.3","1.2","0.00","0.00"
"07:34:58","32.3","30","91","29.97","257","1.3","2.4","0.00","0.00"
"07:39:59","32.7","30.4","91","29.97","257","0.2","2.4","0.00","0.00"
"07:44:58","33.1","30.8","91","29.98","257","0","0","0.00","0.00"
"07:49:59","33.4","31.1","91","29.98","257","0","0","0.00","0.00"
"07:54:59","33.8","31.5","91","29.98","257","0","0","0.00","0.00"
"07:59:56","34.2","31.8","91","29.99","257","0","0","0.00","0.00"
"08:04:58","34.8","32.3","90.6","29.99","257","0","0","0.00","0.00"
"08:09:57","35.3","32.7","90","29.99","257","0","0","0.00","0.00"
"08:14:58","35.9","33.3","90","29.99","257","0.1","2.4","0.00","0.00"
"08:19:59","36.6","33.9","90","29.98","257","0.9","2.4","0.00","0.00"
"08:24:58","37.2","34.5","90","29.98","257","0.9","2.4","0.00","0.00"
"08:29:58","37.9","35","89.1","29.98","257","0.2","2.3","0.00","0.00"
"08:34:57","38.5","35.4","88.3","29.98","257","0","0","0.00","0.00"
"08:39:58","39.3","35.9","87.8","29.98","257","0","0","0.00","0.00"
"08:44:58","40.2","36.4","86.5","29.98","257","0","0","0.00","0.00"
"08:49:58","41.4","37.3","85.5","29.97","257","0.7","2.4","0.00","0.00"
"08:54:57","42.6","37.6","82.5","29.97","177","1.6","3.6","0.00","0.00"
"08:59:57","43.5","37.9","80.2","29.97","133","1.8","3.6","0.00","0.00"
"09:04:59","44.4","38","78","29.96","124","2","4.8","0.00","0.00"
"09:09:58","45.6","37.9","74.4","29.96","122","2","6","0.00","0.00"
"09:14:58","46.7","36.9","68.6","29.96","107","3","6","0.00","0.00"
"09:19:59","47.6","36.9","66.2","29.96","85","2.5","5.8","0.00","0.00"
"09:24:59","48.4","36","61.9","29.96","91","2.6","4.8","0.00","0.00"
"09:29:58","49","35.8","60.2","29.97","120","3.2","7.2","0.00","0.00"
"09:34:59","49.2","33.8","55.2","29.97","114","4.5","8.4","0.00","0.00"
"09:39:59","49.4","33.7","54.7","29.97","97","4.3","7.2","0.00","0.00"
"09:44:58","49.8","34.3","55.2","29.97","81","3.2","6","0.00","0.00"
"09:49:59","50.1","34","53.9","29.97","118","3.8","7.2","0.00","0.00"
"09:54:59","50.5","34.1","53.2","29.97","94","4.1","7.2","0.00","0.00"
"09:59:58","50.7","33.9","52.4","29.97","105","4.3","7.2","0.00","0.00"
"10:04:56","51.4","34.1","51.5","29.97","121","2.8","6","0.00","0.00"
"10:09:59","52.1","34.8","51.5","29.97","112","3.4","8.4","0.00","0.00"
"10:14:58","51.9","34.8","52","29.97","117","4","8.4","0.00","0.00"
"10:19:56","51.5","34.8","52.6","29.95","119","3.1","6","0.00","0.00"
"10:24:59","52.1","35.3","52.7","29.95","107","5.2","9.6","0.00","0.00"
"10:29:58","52.2","36","54","29.95","127","4.1","8.4","0.00","0.00"
"10:34:59","51.8","36.1","55","29.95","145","3.9","8.4","0.00","0.00"
"10:39:59","52.4","36.2","53.9","29.95","141","4.4","10.8","0.00","0.00"
"10:44:58","52.7","36.1","53","29.95","119","5.5","10.8","0.00","0.00"
"10:49:58","53.2","36.3","52.6","29.95","125","4.4","9.6","0.00","0.00"
"10:54:57","53.1","36.5","53.3","29.95","135","3.7","9.6","0.00","0.00"
"10:59:57","53.1","36.6","53.4","29.95","134","4.4","9.2","0.00","0.00"
"11:04:58","53.2","36.5","53.2","29.95","189","4.3","10.8","0.00","0.00"
"11:09:57","53","36.1","52.5","29.95","134","3.5","7.2","0.00","0.00"
"11:14:56","52.4","36.2","53.8","29.95","112","5.6","10.8","0.00","0.00"
"11:19:57","52.2","35.7","53.2","29.94","192","4.2","8.4","0.00","0.00"
"11:24:59","52.4","35.8","53.1","29.94","145","3","7.2","0.00","0.00"
"11:29:56","52.6","36.3","53.7","29.94","152","3.4","7.2","0.00","0.00"
"11:34:58","52.7","35.9","52.8","29.93","131","4.4","8.4","0.00","0.00"
"11:39:58","52.6","36.1","53.3","29.93","144","2.5","6.9","0.00","0.00"
"11:44:58","52.8","36.3","53.3","29.93","170","3.7","10.8","0.00","0.00"
"11:49:59","52.4","35.6","52.6","29.93","132","3.2","8.1","0.00","0.00"
"11:54:59","52.1","36","54.1","29.93","155","3.3","7.2","0.00","0.00"
"11:59:58","52","35.8","53.8","29.93","191","3.9","8.4","0.00","0.00"
"12:04:56","51.8","35.5","53.6","29.93","128","4.8","10.8","0.00","0.00"
"12:09:59","51.5","35.5","54.2","29.93","153","4.2","7.2","0.00","0.00"
"12:14:59","51.4","35.9","55.2","29.93","188","4.3","12","0.00","0.00"
"12:19:56","51.3","36.6","57.1","29.92","145","3.2","7.2","0.00","0.00"
"12:24:59","51","37","58.6","29.92","172","4.1","9.6","0.00","0.00"
"12:29:58","50.5","38","61.9","29.92","182","4.1","8.4","0.00","0.00"
"12:34:57","50.1","38.7","64.8","29.91","174","4.1","7.2","0.00","0.00"
"12:39:56","49.6","38.7","65.9","29.91","159","3.3","7.2","0.01","0.01"
"12:44:59","49.2","38.5","66.4","29.91","162","3.8","7.2","0.01","0.01"
"12:49:56","49","39.1","68.4","29.90","190","2.4","7.2","0.01","0.01"
"12:54:59","48.8","38.9","68.6","29.90","164","3.1","6.9","0.01","0.01"
"12:59:59","48.4","39.3","70.8","29.90","138","2.9","6","0.01","0.01"
"13:04:57","47.9","39.8","73.2","29.88","159","2.3","6","0.02","0.02"
"13:09:56","47.6","40","74.7","29.88","136","2.9","4.8","0.02","0.02"
"13:14:56","47.2","40.4","76.8","29.88","129","1.4","3.6","0.02","0.02"
"13:19:58","47","40.5","77.7","29.87","125","2.1","3.6","0.02","0.02"
"13:24:58","47.1","40.6","78","29.87","124","2","3.6","0.02","0.02"
"13:29:58","47.4","41.1","78.7","29.87","118","2.4","4.8","0.02","0.02"
"13:34:59","47.7","41","77.7","29.85","122","3.1","6","0.02","0.02"
"13:39:59","47.8","40.7","76.3","29.85","102","4.1","7.2","0.02","0.02"
"13:44:59","47.9","40.5","75.5","29.85","104","3","8.4","0.02","0.01"
"13:49:56","48.1","39.8","72.9","29.85","115","3.6","8.1","0.02","0.01"
"13:54:59","48.4","39.5","71.1","29.85","114","4","7.2","0.02","0.01"
"13:59:59","48.7","39.3","69.7","29.85","120","3.9","8.4","0.02","0.01"
"14:04:57","49.2","39.2","68.1","29.82","113","4.7","8.4","0.02","0.01"
"14:09:59","49.5","38.8","66.4","29.82","115","4.6","8.4","0.02","0.00"
"14:14:59","49.5","38.7","66.2","29.82","147","4.5","8.4","0.02","0.00"
"14:19:57","49.3","38.5","66.1","29.82","156","5.1","12","0.02","0.00"
"14:24:56","49.2","37.8","64.7","29.82","145","5.6","15","0.02","0.00"
"14:29:59","49.1","37.5","64.3","29.82","142","5.8","16.8","0.02","0.00"
"14:34:56","49.1","37.4","64.2","29.81","135","7.2","17.3","0.02","0.00"
"14:39:56","49.2","37.9","64.8","29.81","136","5.1","12.7","0.02","0.00"
"14:44:56","49.5","37.4","63","29.81","142","7.5","16.1","0.02","0.00"
"14:49:57","49.6","37.4","62.9","29.80","138","5.4","15","0.02","0.00"
"14:54:56","49.6","37.2","62.3","29.80","134","5.5","14.4","0.02","0.00"
"14:59:59","49.6","37.1","62","29.80","125","6.4","15","0.02","0.00"
"15:04:58","49.7","37","61.5","29.79","149","8.4","19.6","0.02","0.00"
"15:09:57","49.7","36.9","61.2","29.79","158","7","16.1","0.02","0.00"
"15:14:56","50.1","37","60.5","29.79","148","8.4","20.7","0.02","0.00"
"15:19:58","49.8","36.5","60.2","29.78","143","6.2","17.3","0.02","0.00"
"15:24:58","49.6","36.5","60.6","29.78","141","5.2","15","0.02","0.00"
"15:29:57","49.2","35.5","59","29.78","124","8","17.3","0.02","0.00"
"15:34:57","48.7","35","59","29.75","125","10","17.3","0.02","0.00"
"15:39:57","48.6","35.5","60.4","29.75","140","6.9","16.1","0.02","0.00"
"15:44:56","48.7","35.5","60.3","29.75","115","7.4","16.1","0.02","0.00"
"15:49:58","48.6","35.7","61","29.72","124","9.3","16.1","0.02","0.00"
"15:54:57","48.6","36.1","61.9","29.72","143","6.5","16.1","0.02","0.00"
"15:59:56","48.7","36.2","61.7","29.73","171","6.4","13.2","0.02","0.00"
"16:04:58","48.7","35.9","61.3","29.73","158","5.1","12.7","0.02","0.00"
"16:09:57","48.5","35.5","60.7","29.73","170","4.7","11.5","0.02","0.00"
"16:14:56","48.3","35.1","60.1","29.76","175","4.6","10.8","0.02","0.00"
"16:19:57","48.3","34.8","59.5","29.76","127","5","12","0.02","0.00"
"16:24:57","48.3","35","60.1","29.76","144","4","10.8","0.02","0.00"
"16:29:56","48.3","34.8","59.6","29.76","122","5.9","12","0.02","0.00"
"16:34:58","48.2","34.9","59.8","29.72","129","5.2","11.5","0.02","0.00"
"16:39:58","48.1","34.9","60","29.72","121","6.6","14.4","0.02","0.00"
"16:44:57","48","35.1","60.7","29.72","131","5.5","12.7","0.02","0.00"
"16:49:59","47.9","35.6","62.2","29.69","143","4.8","14.4","0.02","0.00"
"16:54:58","47.7","36.7","65.5","29.69","164","3.4","8.4","0.02","0.00"
"16:59:57","47.4","36.5","65.8","29.71","129","3.5","8.4","0.02","0.00"
"17:04:57","47.2","36.7","66.7","29.71","123","3.5","8.4","0.02","0.00"
"17:09:59","47","37.3","68.6","29.71","130","4.4","13.2","0.03","0.00"
"17:14:59","46.6","37.6","70.6","29.71","128","6.5","17.3","0.03","0.01"
"17:19:56","46.2","37.7","72.2","29.67","128","5.4","15","0.03","0.01"
"17:24:56","45.8","38","74","29.67","138","5.8","13.2","0.03","0.01"
"17:29:59","45.4","38.3","76.1","29.67","160","5.5","12","0.04","0.02"
"17:34:57","45","38.6","78.1","29.67","138","5.2","12","0.04","0.02"
"17:39:57","44.8","38.8","79.6","29.67","130","3.8","10.8","0.04","0.02"
"17:44:57","44.6","38.6","79.3","29.67","127","5.2","13.2","0.04","0.02"
"17:49:59","44.7","38.9","80","29.66","130","3.7","10.8","0.04","0.02"
"17:54:59","44.7","38.9","80","29.66","139","3.7","8.4","0.04","0.02"
"17:59:58","44.7","38.8","79.7","29.66","115","4.1","10.8","0.04","0.02"
"18:04:57","44.8","38.9","79.5","29.65","115","4.8","12","0.04","0.02"
"18:09:56","44.8","38.9","79.6","29.65","119","5.3","12","0.04","0.02"
"18:14:56","44.8","38.6","78.8","29.66","116","4.8","15","0.04","0.01"
"18:19:59","44.8","38.3","77.7","29.66","123","5.8","12","0.04","0.01"
"18:24:58","44.9","38.1","77.2","29.66","145","4.6","11.5","0.04","0.01"
"18:29:58","44.8","38.1","77.2","29.69","180","2.7","8.4","0.05","0.01"
"18:34:55","44.8","38","76.8","29.69","164","3.9","13.2","0.05","0.01"
"18:39:59","44.8","37.9","76.7","29.69","130","6.2","12","0.05","0.01"
"18:44:59","44.7","38","77.4","29.69","123","7.5","15","0.05","0.01"
"18:49:56","44.4","38.2","78.7","29.66","132","4.1","10.8","0.05","0.01"
"18:54:59","44.1","38.3","80","29.66","128","4.8","14.4","0.05","0.01"
"18:59:59","43.8","38.2","80.7","29.68","131","5.8","12","0.05","0.01"
"19:04:56","43.6","38.3","81.3","29.68","120","2.4","6","0.05","0.01"
"19:09:59","43.5","38.4","82","29.68","145","3.3","7.2","0.06","0.02"
"19:14:59","43.3","38.3","82.1","29.68","120","3.9","6","0.06","0.02"
"19:19:58","43.1","38.2","82.5","29.66","117","4.6","10.8","0.06","0.02"
"19:24:58","43","38.2","82.9","29.66","112","4.4","9.6","0.06","0.02"
"19:29:58","42.9","38.1","82.9","29.66","112","3.9","8.4","0.06","0.02"
"19:34:59","42.8","38","83.1","29.66","119","3.7","8.1","0.07","0.02"
"19:39:59","42.6","38","83.7","29.66","115","3.8","8.4","0.07","0.02"
"19:44:58","42.5","38","83.8","29.66","117","4.6","12","0.07","0.02"
"19:49:57","42.4","38.1","84.5","29.63","120","3.9","12","0.07","0.02"
"19:54:56","42.2","38.1","85.3","29.63","120","4.3","12","0.08","0.03"
"19:59:56","42","37.9","85.2","29.63","139","4.1","12","0.08","0.03"
"20:04:58","41.9","37.7","85","29.62","130","5.9","15","0.08","0.03"
"20:09:57","41.9","37.7","85","29.62","129","4.2","12.7","0.08","0.03"
"20:14:57","41.8","37.9","85.8","29.62","127","3.3","8.4","0.08","0.02"
"20:19:56","41.7","37.8","86","29.61","116","4.5","12","0.08","0.02"
"20:24:56","41.6","37.7","86","29.61","124","5.7","13.2","0.08","0.02"
"20:29:57","41.6","37.7","86","29.61","123","5.3","13.2","0.08","0.02"
"20:34:56","41.5","37.8","86.8","29.60","118","6.1","13.2","0.08","0.02"
"20:39:57","41.4","37.8","87","29.60","116","3.9","8.4","0.08","0.01"
"20:44:57","41.3","37.7","87","29.60","117","5.8","16.1","0.08","0.01"
"20:49:57","41.4","38","87.7","29.59","126","3.7","10.8","0.08","0.01"
"20:54:58","41.4","38.1","88","29.59","112","3.6","7.2","0.08","0.01"
"20:59:58","41.4","38.1","88","29.59","126","5.1","12","0.08","0.00"
"21:04:57","41.5","38.2","88","29.58","127","5","10.8","0.08","0.00"
"21:09:56","41.5","38.2","88","29.58","118","3.7","9.6","0.08","0.00"
"21:14:57","41.5","38.2","88","29.58","128","3.9","10.8","0.08","0.00"
"21:19:57","41.5","38.3","88.4","29.57","118","3.5","8.4","0.08","0.00"
"21:24:57","41.5","38.5","89","29.57","123","3.7","8.4","0.08","0.00"
"21:29:58","41.5","38.5","89","29.57","120","3.6","9.6","0.08","0.00"
"21:34:58","41.6","38.6","89","29.55","123","3.8","10.8","0.08","0.00"
"21:39:59","41.6","38.6","89","29.55","106","2.6","6","0.08","0.00"
"21:44:56","41.6","38.6","89","29.55","108","3.5","7.2","0.08","0.00"
"21:49:58","41.6","38.8","89.5","29.54","121","2.5","7.2","0.08","0.00"
"21:54:58","41.6","38.9","89.8","29.54","128","3.6","7.2","0.08","0.00"
"21:59:59","41.7","38.8","89.3","29.54","107","4.7","13.2","0.08","0.00"
"22:04:57","41.7","38.8","89.3","29.53","103","4.1","10.4","0.08","0.00"
"22:09:56","41.7","39","90","29.53","133","4.4","13.2","0.08","0.00"
"22:14:57","41.7","39","90","29.53","106","3.2","6.9","0.09","0.01"
"22:19:57","41.6","39","90.2","29.53","106","2.1","6","0.09","0.01"
"22:24:57","41.6","39.2","91","29.53","119","1.6","5.8","0.10","0.02"
"22:29:58","41.5","39.1","91","29.53","110","1.4","3.6","0.11","0.03"
"22:34:58","41.5","39.2","91.3","29.53","78","1.6","4.8","0.11","0.03"
"22:39:59","41.4","39.3","92.1","29.53","341","7.2","18.4","0.12","0.04"
"22:44:56","41.3","39.4","93","29.57","29","3.8","13.2","0.17","0.08"
"22:49:58","41.2","39.3","93","29.57","349","1.5","4.8","0.19","0.11"
"22:54:59","41.1","39.2","93","29.57","339","0.3","2.4","0.21","0.13"
"22:59:56","41.1","39.3","93.4","29.57","339","0.2","1.2","0.22","0.13"
"23:04:56","41","39.4","94","29.57","339","0","1.2","0.22","0.14"
"23:09:59","40.9","39.3","94","29.57","339","0.3","2.4","0.22","0.14"
"23:14:57","40.9","39.3","94","29.57","339","0","1.2","0.22","0.14"
"23:19:55","40.9","39.3","94","29.55","344","1.6","3.6","0.22","0.13"
"23:24:56","40.9","39.4","94.4","29.55","348","0.6","2.4","0.23","0.14"
"23:29:57","40.8","39.5","95","29.55","348","0","1.2","0.23","0.13"
"23:34:57","40.8","39.5","95","29.54","348","0.5","2.4","0.23","0.12"
"23:39:57","40.8","39.5","95","29.54","348","0","2.4","0.23","0.12"
"23:44:58","40.8","39.5","95","29.54","351","1.1","4.8","0.24","0.11"
"23:49:58","40.8","39.5","95","29.53","129","2","4.8","0.24","0.07"
"23:54:59","40.8","39.5","95","29.53","130","2.4","4.8","0.24","0.04"
